To NAV CANADA Home Page Login to a new session Search on AWWS site Feedback and Comments Disclaimer Vers la page française équivalente Tips FAQ What's new on the site To the Forecasts and Observations / NOTAM section To "File a Flight Plan" website Publications and other links Update of the User's profile FIC Telephone Numbers My Weather Data Folder Route Weather Data Regional Weather Data Local Weather Data To the Forecasts and Observations / NOTAM section
Request Generated 02/23/2017 at 20:47:34 UTC . Weather information available at that time is displayed.

METAR/TAF

BERENS RIVER/MB    (show WxCam)

METAR CYBV 232000Z 31014KT 15SM FEW220 M14/M20 A3012 RMK CS1 SLP225=
METAR CYBV 231900Z 33010G16KT 15SM FEW015 FEW220 M14/M20 A3012 RMK
SC1CS1 SLP225=
METAR CYBV 231800Z 31007KT 290V360 15SM SCT015 SCT220 M14/M19 A3014
RMK SC3CS1 SLP229=

CYBV - No TAF is issued for this station

Your time UTC time
Weather data provided by Environment Canada and NAV CANADA